Temp
86 86 86 86 86 86 86 85 87 86 85 87 87 86 86 87 88 89 89 88 88 88 88 87 87 87 88 87 87 87 86 87 88 87 87 87 86 88 88 88 86 84
86 86 85 86 85 85 86 87 86 86 85 85 87 87 87 88 89 89 88 89 88 88 88 89 88 87 87 87 86 86 85 86 86 90 87 87 86 87 89 88 88 86
86 86 87 87 88 88 90 89 87 87 87 89 89 88 89 90 89 88 88 89 88 90 88 87 87 87 87 87 86 86 86 85 85 89 87 86 87 86 87 90 89 89
86 87 88 89 89 88 89 88 88 87 89 88 89 92 91 93 90 89 88 89 87 88 88 88 88 88 87 87 86 85 86 85 86 86 86 86 87 87 87 87 88 89
87 87 88 88 89 88 88 89 90 89 90 89 91 89 88 87 88 90 88 88 87 88 88 87 88 88 87 86 86 85 86 86 86 86 85 85 86 87 87 87 86 87
87 86 87 88 88 88 89 89 89 90 90 92 90 91 91 90 90 90 89 90 90 91 90 90 88 89 89 87 86 85 86 87 87 85 85 84 86 88 89 87 86 85
88 87 88 89 90 90 89 89 89 89 91 92 90 90 91 91 90 89 89 89 90 89 90 88 86 87 88 87 85 85 85 85 86 86 84 85 85 85 89 87 85 85
88 89 89 89 90 90 89 90 90 90 90 90 91 90 91 92 90 92 90 90 90 89 88 89 87 86 89 88 86 85 86 88 87 85 84 84 85 84 85 87 87 85
89 88 88 89 90 90 91 92 91 92 91 91 92 93 92 92 91 92 89 89 89 88 87 88 87 88 88 88 86 85 85 87 88 86 85 85 85 85 86 86 86 85
88 89 90 90 90 91 91 92 93 93 92 92 93 95 93 91 91 91 89 87 88 88 87 87 87 88 88 88 87 87 86 85 86 86 86 86 86 86 86 86 86 85
90 90 89 89 90 92 92 93 94 94 93 93 94 94 94 92 90 90 88 88 89 89 88 88 88 88 87 89 89 88 87 87 87 86 86 86 86 86 87 86 86 86
90 90 90 90 91 92 93 94 95 94 94 94 94 93 93 94 92 91 90 88 88 89 89 88 88 88 87 88 90 90 88 88 88 87 87 87 87 87 87 87 87 86
90 90 90 91 91 92 94 94 94 95 95 94 94 94 94 94 94 91 90 90 88 89 89 88 88 89 87 87 88 88 87 87 88 88 87 87 88 89 89 89 89 88
90 91 92 90 90 90 92 94 95 95 94 94 93 93 95 95 94 93 92 92 90 89 89 89 88 88 87 87 87 88 88 88 87 88 88 88 88 89 90 90 90 90
89 91 92 90 90 90 91 92 93 93 93 93 92 93 95 96 96 95 92 91 91 89 89 90 90 89 89 88 87 87 88 89 88 88 88 87 88 89 89 89 91 92
88 89 89 89 89 89 88 90 93 93 95 93 92 92 91 91 92 92 93 92 90 89 90 90 90 90 85 78 81 87 87 90 89 87 87 87 86 87 89 90 91 92
89 88 88 88 88 88 88 89 90 92 91 89 90 90 90 89 91 92 93 92 92 91 90 91 92 91 77 71 73 77 87 87 87 86 86 86 87 85 85 88 90 91
89 88 87 87 87 87 87 88 89 89 88 88 89 90 88 91 92 91 90 93 92 92 91 91 91 82 71 70 71 71 78 88 89 88 88 87 87 87 87 88 88 91
88 88 87 87 87 87 87 88 87 88 88 90 91 90 91 89 88 91 90 92 92 90 91 91 92 78 68 69 69 69 71 81 90 89 90 89 88 87 87 86 86 86
88 88 87 87 87 87 87 87 87 87 91 93 93 90 88 89 91 90 90 88 90 90 89 92 92 77 67 67 68 68 69 74 89 90 90 90 88 88 89 88 86 85
88 88 87 87 87 87 87 87 87 87 89 92 94 92 89 88 90 90 90 90 92 92 91 93 96 72 65 64 65 65 67 71 86 90 89 88 88 88 87 88 87 87
89 88 88 87 87 87 87 87 87 86 87 90 91 94 93 92 91 92 91 91 91 93 93 91 95 67 64 63 64 64 66 77 84 85 86 87 87 88 87 87 88 87
91 90 88 87 88 87 87 87 87 87 88 90 90 93 93 92 91 92 90 92 91 90 91 90 93 69 62 61 62 62 66 80 83 84 84 84 85 86 86 87 88 88
90 90 88 88 88 87 87 89 90 90 90 90 91 92 93 94 93 91 92 92 92 92 92 91 93 72 58 60 61 60 69 81 82 83 83 83 84 85 85 85 87 88
91 90 89 89 87 88 89 89 89 89 91 91 93 93 92 92 91 91 92 92 95 95 84 89 94 78 55 60 58 58 69 83 83 83 82 83 84 84 85 85 85 85
91 89 88 88 87 88 89 89 90 91 91 92 92 93 93 94 93 92 92 92 94 94 94 93 92 90 68 58 57 57 62 82 83 82 82 82 83 83 84 84 84 85
MSLP
1013.08 1013.36 1013.76 1014.00 1014.20 1014.28 1014.60 1015.04 1015.20 1015.48 1015.64 1015.64 1016.04 1016.16 1016.20 1016.08 1015.92 1016.08 1016.32 1016.52 1016.80 1017.08 1017.20 1017.28 1017.36 1017.64 1017.72 1017.80 1017.88 1018.08 1018.24 1018.32 1018.36 1018.36 1018.56 1018.72 1018.92 1019.00 1019.16 1019.12 1019.20 1019.28
1012.72 1012.96 1013.24 1013.56 1013.88 1013.96 1014.16 1014.36 1014.76 1015.00 1015.28 1015.32 1015.36 1015.56 1015.64 1015.72 1015.80 1015.84 1016.08 1016.32 1016.56 1016.84 1016.92 1017.08 1017.24 1017.44 1017.64 1017.80 1017.92 1018.16 1018.32 1018.36 1018.60 1018.16 1018.52 1018.68 1018.80 1018.80 1018.88 1018.80 1018.92 1018.92
1012.44 1012.76 1013.04 1013.36 1013.60 1013.76 1013.84 1013.96 1014.24 1014.52 1014.80 1014.84 1014.88 1015.04 1015.32 1015.32 1015.60 1015.68 1015.80 1016.00 1016.36 1016.56 1016.76 1016.88 1017.08 1017.24 1017.44 1017.60 1017.76 1018.00 1018.20 1018.36 1018.56 1018.24 1018.32 1018.60 1018.56 1018.76 1018.72 1018.52 1018.60 1018.72
1012.08 1012.24 1012.52 1012.80 1012.96 1013.32 1013.44 1013.72 1013.96 1014.20 1014.28 1014.68 1014.76 1014.64 1014.76 1014.84 1015.16 1015.52 1015.68 1015.80 1016.12 1016.36 1016.52 1016.68 1016.88 1017.04 1017.20 1017.40 1017.60 1017.84 1017.92 1018.08 1018.08 1018.12 1018.36 1018.32 1018.40 1018.48 1018.56 1018.48 1018.48 1018.48
1011.64 1011.92 1012.08 1012.36 1012.52 1012.72 1013.00 1013.40 1013.64 1013.84 1014.04 1014.16 1014.24 1014.36 1014.52 1014.64 1014.92 1015.24 1015.52 1015.72 1015.88 1016.16 1016.28 1016.56 1016.68 1016.84 1016.96 1017.24 1017.40 1017.80 1017.76 1017.96 1017.88 1018.00 1018.32 1018.48 1018.32 1018.36 1018.44 1018.44 1018.56 1018.72
1011.20 1011.40 1011.64 1011.96 1012.16 1012.44 1012.80 1013.00 1013.16 1013.36 1013.64 1013.84 1013.96 1014.00 1014.20 1014.36 1014.60 1014.84 1015.20 1015.56 1015.68 1015.84 1016.04 1016.20 1016.52 1016.60 1016.72 1017.04 1017.24 1017.52 1017.64 1017.80 1017.72 1017.84 1018.20 1018.44 1018.36 1018.12 1018.16 1018.24 1018.48 1018.72
1010.84 1011.12 1011.44 1011.56 1011.88 1012.00 1012.32 1012.52 1012.68 1012.84 1013.08 1013.20 1013.36 1013.72 1013.84 1014.16 1014.40 1014.56 1014.80 1015.16 1015.40 1015.60 1015.72 1015.92 1016.20 1016.44 1016.44 1016.72 1017.08 1017.40 1017.44 1017.48 1017.48 1017.60 1018.00 1018.16 1018.20 1018.28 1017.96 1018.04 1018.24 1018.44
1010.28 1010.48 1010.84 1011.16 1011.52 1011.72 1012.00 1012.16 1012.32 1012.48 1012.56 1012.84 1013.20 1013.28 1013.40 1013.80 1014.08 1014.16 1014.40 1014.72 1015.08 1015.36 1015.48 1015.56 1015.76 1016.04 1016.20 1016.44 1016.92 1017.20 1017.36 1017.24 1017.44 1017.48 1017.76 1017.96 1018.04 1018.32 1018.16 1017.96 1018.00 1018.28
1009.72 1010.20 1010.48 1010.84 1011.16 1011.36 1011.60 1011.68 1011.84 1012.00 1012.08 1012.52 1012.76 1012.88 1012.96 1013.20 1013.60 1013.84 1014.12 1014.40 1014.72 1015.00 1015.24 1015.36 1015.48 1015.72 1015.84 1016.12 1016.48 1016.84 1017.12 1017.16 1017.08 1017.28 1017.52 1017.76 1017.96 1018.04 1018.00 1017.88 1018.08 1018.20
1009.36 1009.64 1010.08 1010.40 1010.80 1010.84 1011.08 1011.16 1011.24 1011.48 1011.64 1012.00 1012.24 1012.32 1012.68 1012.84 1013.00 1013.40 1013.76 1014.16 1014.48 1014.72 1014.92 1015.12 1015.24 1015.40 1015.60 1015.76 1016.04 1016.36 1016.72 1016.92 1016.88 1016.96 1017.16 1017.28 1017.48 1017.60 1017.72 1017.76 1017.88 1018.12
1008.92 1009.20 1009.64 1009.92 1010.12 1010.24 1010.48 1010.60 1010.76 1011.00 1011.20 1011.52 1011.76 1012.00 1012.16 1012.52 1012.80 1012.92 1013.44 1013.80 1014.16 1014.44 1014.60 1014.80 1014.92 1015.04 1015.32 1015.52 1015.60 1015.76 1016.08 1016.40 1016.60 1016.68 1016.80 1016.92 1017.04 1017.16 1017.24 1017.40 1017.56 1017.72
1008.44 1008.72 1009.08 1009.32 1009.48 1009.64 1009.84 1010.04 1010.20 1010.48 1010.84 1011.08 1011.28 1011.64 1011.76 1012.04 1012.48 1012.72 1013.00 1013.44 1013.64 1013.84 1014.08 1014.28 1014.40 1014.64 1014.92 1015.12 1015.28 1015.40 1015.64 1015.92 1016.16 1016.36 1016.48 1016.56 1016.64 1016.76 1016.84 1016.92 1017.12 1017.24
1007.76 1008.04 1008.28 1008.68 1008.96 1009.08 1009.16 1009.44 1009.72 1009.88 1010.24 1010.68 1010.80 1011.12 1011.44 1011.72 1012.04 1012.44 1012.56 1012.92 1013.24 1013.40 1013.68 1013.88 1014.08 1014.24 1014.52 1014.76 1014.92 1015.04 1015.32 1015.64 1015.84 1016.04 1016.16 1016.24 1016.28 1016.32 1016.36 1016.48 1016.60 1016.68
1006.92 1007.12 1007.56 1008.00 1008.32 1008.60 1008.80 1008.92 1009.20 1009.36 1009.64 1009.96 1010.32 1010.80 1011.04 1011.16 1011.56 1012.00 1012.24 1012.48 1012.84 1013.08 1013.24 1013.40 1013.72 1013.96 1014.16 1014.40 1014.56 1014.72 1014.92 1015.24 1015.48 1015.68 1015.88 1015.96 1015.96 1015.96 1016.00 1016.04 1016.12 1016.20
1006.32 1006.64 1007.00 1007.52 1007.88 1008.32 1008.56 1008.72 1008.84 1009.00 1009.20 1009.52 1009.96 1010.32 1010.44 1010.56 1010.72 1011.20 1011.84 1012.24 1012.44 1012.76 1013.00 1013.08 1013.36 1013.60 1013.72 1014.00 1014.32 1014.52 1014.52 1014.84 1015.08 1015.28 1015.48 1015.68 1015.76 1015.72 1015.68 1015.68 1015.68 1015.64
1005.92 1006.24 1006.64 1007.00 1007.52 1007.96 1008.24 1008.36 1008.56 1008.80 1008.96 1009.28 1009.60 1009.88 1010.12 1010.28 1010.44 1010.68 1011.24 1011.80 1012.24 1012.52 1012.72 1012.88 1013.00 1013.04 1013.16 1013.40 1013.64 1013.96 1014.24 1014.32 1014.52 1014.80 1015.04 1015.20 1015.44 1015.56 1015.48 1015.36 1015.32 1015.32
1005.80 1006.08 1006.32 1006.76 1006.96 1007.36 1007.76 1008.08 1008.24 1008.44 1008.76 1009.08 1009.32 1009.60 1009.88 1010.04 1010.24 1010.56 1010.80 1011.24 1011.68 1012.08 1012.52 1012.60 1012.56 1012.52 1012.76 1013.12 1013.40 1013.56 1013.76 1014.04 1014.24 1014.48 1014.60 1014.84 1015.00 1015.24 1015.40 1015.24 1015.04 1014.92
1005.40 1005.72 1006.12 1006.40 1006.68 1007.08 1007.32 1007.60 1007.84 1008.16 1008.56 1008.84 1009.08 1009.44 1009.64 1009.76 1010.08 1010.24 1010.40 1010.68 1011.16 1011.52 1011.92 1012.08 1012.12 1012.04 1012.40 1012.76 1013.04 1013.28 1013.40 1013.60 1013.76 1014.04 1014.24 1014.48 1014.60 1014.72 1014.84 1014.88 1014.88 1014.76
1005.08 1005.48 1005.84 1006.12 1006.32 1006.52 1006.84 1007.24 1007.64 1007.96 1008.24 1008.56 1008.88 1008.96 1009.28 1009.76 1009.92 1010.08 1010.28 1010.24 1010.56 1011.12 1011.44 1011.48 1011.60 1011.60 1012.04 1012.32 1012.68 1012.96 1013.20 1013.28 1013.40 1013.56 1013.80 1014.00 1014.16 1014.28 1014.40 1014.52 1014.60 1014.68
1004.80 1005.16 1005.52 1005.72 1005.92 1006.32 1006.64 1007.04 1007.40 1007.68 1007.72 1007.84 1008.20 1008.60 1009.16 1009.48 1009.68 1009.96 1010.04 1010.16 1010.24 1010.56 1010.88 1010.96 1011.08 1011.16 1011.60 1011.96 1012.28 1012.60 1012.84 1013.08 1013.08 1013.20 1013.36 1013.48 1013.60 1013.76 1013.92 1014.08 1014.20 1014.44
1004.52 1004.84 1005.28 1005.52 1005.76 1006.04 1006.44 1006.80 1007.04 1007.28 1007.48 1007.56 1007.80 1008.28 1008.80 1009.24 1009.44 1009.76 1009.84 1009.96 1010.00 1010.08 1010.44 1010.64 1010.52 1010.68 1011.20 1011.60 1011.92 1012.24 1012.48 1012.84 1012.88 1012.92 1013.04 1013.16 1013.16 1013.20 1013.40 1013.56 1013.68 1013.84
1004.08 1004.60 1004.96 1005.24 1005.52 1005.80 1006.20 1006.56 1006.80 1007.04 1007.32 1007.24 1007.48 1007.72 1008.00 1008.44 1008.84 1009.08 1009.48 1009.72 1009.72 1009.88 1010.08 1010.40 1010.08 1010.32 1010.80 1011.24 1011.56 1011.88 1012.24 1012.76 1012.88 1013.08 1013.12 1013.04 1013.00 1012.92 1012.96 1013.00 1013.08 1013.32
1003.48 1004.04 1004.56 1004.88 1005.16 1005.56 1005.92 1006.16 1006.48 1006.80 1007.00 1006.92 1007.40 1007.52 1007.88 1008.24 1008.60 1008.80 1008.92 1009.24 1009.52 1009.68 1009.92 1010.04 1009.92 1010.16 1010.44 1010.76 1011.16 1011.52 1012.24 1012.60 1012.72 1012.92 1013.04 1013.12 1013.04 1012.88 1012.80 1012.76 1012.76 1012.84
1002.84 1003.44 1004.08 1004.48 1004.80 1005.16 1005.44 1005.64 1005.88 1006.16 1006.52 1006.56 1007.12 1007.36 1007.64 1007.76 1008.00 1008.40 1008.52 1008.64 1009.00 1009.32 1009.40 1009.84 1009.72 1009.88 1010.24 1010.52 1010.84 1011.40 1011.72 1012.08 1012.36 1012.68 1012.92 1013.04 1013.04 1012.88 1012.84 1012.80 1012.64 1012.56
1002.44 1002.92 1003.48 1003.96 1004.36 1004.68 1004.92 1005.40 1005.64 1005.88 1006.04 1006.28 1006.60 1006.88 1007.16 1007.32 1007.68 1008.12 1008.32 1008.28 1008.36 1008.60 1008.84 1009.28 1009.40 1009.60 1009.96 1010.24 1010.76 1011.24 1011.48 1011.48 1011.88 1012.32 1012.80 1012.88 1012.96 1013.00 1012.76 1012.72 1012.60 1012.40
1002.08 1002.60 1003.00 1003.48 1004.00 1004.36 1004.60 1004.96 1005.20 1005.60 1005.88 1006.12 1006.32 1006.52 1006.84 1007.00 1007.28 1007.64 1008.08 1008.08 1007.96 1008.16 1008.40 1008.64 1008.96 1009.08 1009.56 1009.88 1010.28 1010.76 1010.96 1011.00 1011.40 1012.08 1012.56 1012.60 1012.56 1012.68 1012.84 1012.64 1012.40 1012.24
Wind_Speed
12 11 11 10 9 9 8 9 9 8 7 7 7 7 7 5 5 6 8 7 8 7 5 4 5 4 4 3 3 2 2 2 2 1 3 2 3 4 4 3 3 4
14 12 10 10 8 9 8 9 9 8 9 7 7 7 7 6 8 5 7 7 8 7 6 6 5 5 5 4 4 4 4 3 2 3 2 3 3 3 4 4 4 2
14 13 13 13 12 12 13 10 9 9 9 9 7 6 8 8 7 7 5 8 8 8 8 7 6 6 6 5 4 5 5 4 4 4 3 3 2 3 3 5 3 5
14 14 14 15 13 13 12 10 9 9 9 9 9 7 8 9 7 9 6 7 7 8 8 7 7 7 7 6 5 5 5 5 4 4 3 3 3 3 3 3 4 2
17 15 13 13 12 12 11 11 13 11 11 9 10 9 7 6 9 9 9 7 7 8 7 9 8 7 7 7 6 5 5 5 5 5 4 3 3 3 3 3 3 3
15 13 13 13 12 12 13 13 12 12 12 12 11 10 9 8 7 9 10 9 9 9 9 9 9 8 8 8 7 6 6 6 6 6 5 5 4 4 5 4 4 4
18 15 16 14 15 13 13 12 12 11 12 11 9 10 9 10 8 9 10 10 11 9 10 9 9 9 8 7 7 7 6 6 5 7 7 6 5 5 5 4 4 4
19 18 16 15 16 15 14 13 12 11 11 11 11 10 10 11 11 9 9 11 11 10 9 9 9 9 10 7 8 8 8 7 7 4 7 7 5 5 6 5 3 3
18 17 16 18 18 16 17 17 15 13 11 12 12 12 11 10 11 11 9 10 10 9 9 8 9 10 9 8 8 9 9 8 7 7 6 6 7 7 7 6 5 4
18 17 20 20 19 17 18 17 16 15 13 13 14 12 13 11 11 12 10 10 10 10 10 9 8 10 10 9 9 10 9 9 7 7 8 7 7 7 8 7 7 6
21 20 20 21 20 17 19 18 17 16 14 15 15 14 13 12 10 11 11 11 11 11 10 11 10 10 10 10 9 9 10 9 9 7 7 8 8 7 7 7 7 7
21 20 21 22 21 19 20 19 17 16 16 14 15 14 12 13 12 11 11 12 12 11 10 10 9 9 10 10 11 10 9 10 9 8 8 7 8 8 8 7 8 8
21 20 19 20 19 18 17 17 17 17 17 16 15 14 14 15 15 13 11 12 12 12 12 10 10 10 10 10 10 9 10 10 10 9 9 8 7 8 9 9 9 8
20 20 19 17 16 14 14 16 17 16 15 14 13 15 16 15 16 15 12 11 12 12 11 10 11 11 10 10 10 10 10 10 10 9 10 9 8 9 9 10 10 10
16 17 16 15 15 14 14 14 15 13 13 13 13 14 14 14 14 15 14 13 12 12 11 11 11 12 10 11 11 11 9 10 11 10 9 9 9 10 10 9 9 10
16 15 15 15 16 15 14 13 13 13 14 13 14 14 12 11 11 12 15 14 13 13 12 11 10 10 12 17 15 11 10 10 9 10 9 8 8 9 9 10 11 11
15 14 14 15 16 16 15 13 13 13 12 11 12 14 12 11 11 11 14 14 14 14 14 13 12 12 16 17 17 17 12 10 9 9 10 9 9 8 9 9 9 10
15 15 15 15 15 16 16 14 13 12 12 11 11 14 12 11 12 12 11 13 13 15 15 14 12 13 18 18 18 18 15 11 10 9 9 10 10 9 9 9 9 9
14 15 15 15 15 16 15 14 14 12 13 13 13 12 12 11 11 12 11 11 13 14 14 14 13 15 17 20 19 19 18 13 10 9 9 10 10 10 10 9 8 8
15 15 15 15 14 14 14 15 15 14 14 13 13 11 12 13 12 12 10 10 10 12 12 12 13 13 19 20 20 20 19 16 10 10 10 9 9 10 10 10 9 8
15 15 15 14 14 14 14 15 16 14 14 13 13 12 12 12 13 12 11 11 11 10 11 13 13 15 19 20 21 21 21 15 12 10 8 8 8 8 9 10 9 9
16 15 14 14 14 15 15 15 15 15 14 12 12 13 12 11 11 11 12 12 12 12 11 12 12 16 19 20 22 21 21 10 11 11 9 7 6 7 8 8 9 9
17 16 15 15 15 15 16 16 15 15 13 11 12 13 13 13 13 14 10 12 13 12 12 10 10 13 19 21 21 22 15 8 13 11 11 10 8 5 4 4 6 8
17 16 16 16 15 16 16 15 14 13 13 12 13 13 15 15 14 13 13 13 13 13 13 11 10 11 18 19 21 20 18 12 12 11 11 10 9 8 7 6 6 10
16 16 16 16 16 15 14 14 15 13 13 11 13 13 13 11 11 12 13 12 14 15 15 13 13 10 18 19 20 20 18 12 11 11 10 9 9 9 9 9 9 10
15 15 15 16 16 15 14 13 12 13 14 14 14 13 12 12 12 13 14 13 13 14 12 13 15 10 14 20 21 21 22 14 10 10 11 11 10 9 9 9 10 10
Wind_Direction
180 182 186 186 186 187 178 178 181 186 189 185 185 188 198 193 205 178 177 172 179 190 195 193 176 186 200 199 191 192 281 262 248 157 181 226 212 227 232 227 198 254
181 182 183 185 186 186 185 181 183 186 187 191 188 181 189 188 193 205 175 173 171 185 189 196 180 184 195 196 187 200 202 210 226 228 209 196 221 259 253 237 227 204
181 180 182 187 189 188 193 187 185 186 188 195 195 182 179 191 186 197 188 177 174 186 190 191 188 185 191 200 191 200 199 201 208 236 193 210 214 213 253 258 221 211
182 184 186 190 192 190 193 190 187 189 191 191 198 198 189 189 186 183 196 183 174 184 183 190 194 193 190 198 198 202 206 196 205 215 223 212 202 224 228 233 263 254
183 184 186 190 193 190 192 194 194 189 197 192 193 198 199 190 176 180 187 189 182 186 180 183 190 196 185 194 196 206 211 201 204 197 213 225 210 204 232 246 246 248
183 184 185 188 191 188 190 195 194 192 195 197 191 192 197 199 181 182 180 191 192 195 194 186 189 199 191 188 193 201 212 212 200 192 197 209 224 215 224 214 215 228
182 182 187 190 193 193 192 193 195 193 193 199 187 192 191 194 196 183 180 188 196 199 201 190 187 192 194 186 189 195 211 213 223 188 190 197 205 236 239 216 208 212
183 181 186 188 192 194 194 193 195 195 190 192 194 190 189 192 194 193 186 185 196 196 202 193 187 184 190 189 185 197 203 210 224 217 186 195 201 210 227 245 222 207
181 182 184 189 191 193 196 195 195 195 192 191 197 193 189 193 187 197 192 187 194 194 197 201 186 186 188 191 189 192 198 211 207 211 208 197 199 207 210 216 227 222
181 182 185 188 192 194 195 196 194 194 192 195 196 197 191 191 187 191 191 190 192 194 191 199 191 187 191 195 192 190 196 206 213 202 205 210 210 204 211 213 211 212
183 184 186 189 191 194 195 196 194 192 192 195 195 198 191 190 190 186 189 189 192 196 193 193 195 189 190 197 198 193 194 201 210 214 203 204 210 214 212 212 216 218
184 185 188 190 192 193 194 194 195 192 191 194 195 196 191 189 190 189 189 190 193 195 198 193 193 192 190 196 201 199 193 200 203 209 215 208 206 210 216 218 220 217
185 187 188 191 192 195 193 192 194 194 192 192 195 196 197 193 191 193 191 191 192 194 198 194 193 195 192 195 202 201 195 197 204 203 209 214 215 215 217 217 222 223
186 187 188 188 190 193 194 192 195 195 192 187 190 196 199 198 193 192 191 192 191 195 196 195 193 195 195 196 201 203 196 194 201 205 206 210 214 215 220 223 217 220
183 185 184 184 186 189 195 195 195 194 190 184 184 195 199 203 198 190 192 194 192 193 198 198 196 197 198 196 199 204 204 196 195 204 208 207 210 216 217 222 227 223
181 182 183 182 183 186 193 195 192 194 194 189 182 190 196 199 202 188 188 191 192 190 197 201 201 200 199 195 194 199 203 206 196 199 207 210 207 213 219 217 222 231
181 184 182 182 182 185 188 192 193 190 194 191 183 186 194 195 199 195 188 191 194 195 197 203 205 205 192 191 194 198 199 205 201 195 199 207 211 210 216 222 223 222
184 182 183 184 182 185 185 190 192 190 191 192 187 184 190 192 198 199 194 187 192 197 199 201 206 202 185 189 192 196 199 202 206 203 199 203 211 215 216 220 226 229
183 184 185 185 186 185 184 186 191 191 191 191 191 184 183 192 197 200 201 196 189 193 201 201 207 199 183 187 191 194 201 204 208 209 208 205 206 212 218 219 219 225
183 185 186 187 185 184 183 186 190 194 193 189 189 182 183 191 196 201 204 205 200 191 195 203 208 190 184 186 190 193 198 203 212 209 212 213 208 207 213 219 217 219
184 186 188 186 184 184 184 188 191 193 193 191 191 188 184 188 194 200 204 208 210 201 192 201 212 184 182 185 190 193 198 199 211 217 217 215 215 210 208 212 217 218
183 186 187 186 186 185 186 189 191 192 193 191 192 194 191 186 193 202 202 206 208 212 212 204 210 175 181 185 190 194 194 190 207 218 229 236 226 218 212 209 211 214
183 185 187 187 186 188 189 190 189 190 192 190 193 195 193 192 195 201 202 206 206 209 217 214 212 179 181 186 189 192 181 186 203 211 221 231 245 253 255 228 215 213
182 185 186 186 187 191 190 190 187 187 191 190 195 196 198 197 196 199 203 206 206 208 208 212 218 179 185 187 190 184 180 186 198 206 216 223 232 239 247 254 250 236
181 184 185 186 189 190 188 187 189 186 189 188 196 200 200 196 194 200 205 208 209 210 205 205 218 188 186 184 187 182 187 195 193 201 209 214 217 224 226 235 239 241
185 184 184 186 185 185 186 185 182 186 191 192 196 200 201 201 195 198 204 209 208 210 204 202 213 203 183 187 183 184 189 190 193 197 206 209 209 212 217 219 226 231